CFG2289 EDDL-EDDF

Flight info

Callsign CFG2289
Flight time 0h 30m
Altitude 23000
Route COL5Z COL T911 ROLIS ROLIS5A
Aircraft A320/M-SDE3FGHIRWY/LB1

Departure

Time 2026-05-05 18:56
Airport Düsseldorf Airport (EDDL)

Arrival

Time 2026-05-05 19:27
Airport Frankfurt Main Airport (EDDF)
Time Latitude Longitude Altitude Speed Heading
2026-05-05 18:31 51.27736 6.75554 124 ft 0 kts 63°
2026-05-05 18:45 51.27732 6.75541 124 ft 4 kts 63°
2026-05-05 18:46 51.27720 6.75504 124 ft 3 kts 63°
2026-05-05 18:46 51.27709 6.75475 123 ft 4 kts 30°
2026-05-05 18:46 51.27687 6.75473 123 ft 4 kts 335°
2026-05-05 18:46 51.27666 6.75489 127 ft 1 kts 333°
2026-05-05 18:47 51.27666 6.75490 127 ft 0 kts 333°
2026-05-05 18:48 51.27689 6.75471 123 ft 6 kts 333°
2026-05-05 18:49 51.27745 6.75426 123 ft 9 kts 333°
2026-05-05 18:49 51.27763 6.75411 126 ft 0 kts 333°
2026-05-05 18:50 51.27767 6.75408 126 ft 3 kts 333°
2026-05-05 18:50 51.27801 6.75380 124 ft 8 kts 333°
2026-05-05 18:51 51.27857 6.75334 125 ft 10 kts 333°
2026-05-05 18:51 51.27889 6.75308 123 ft 0 kts 333°
2026-05-05 18:54 51.27898 6.75301 125 ft 5 kts 333°
2026-05-05 18:55 51.27958 6.75274 124 ft 11 kts
2026-05-05 18:55 51.28025 6.75337 122 ft 12 kts 51°
2026-05-05 18:55 51.28044 6.75377 124 ft 0 kts 53°
2026-05-05 18:55 51.28045 6.75377 124 ft 1 kts 53°
2026-05-05 18:56 51.28133 6.75560 125 ft 58 kts 52°
2026-05-05 18:56 51.28528 6.76378 127 ft 125 kts 53°
2026-05-05 18:56 51.29133 6.77643 424 ft 149 kts 49°
2026-05-05 18:56 51.29783 6.78972 1122 ft 155 kts 50°
2026-05-05 18:57 51.30467 6.80346 1827 ft 164 kts 50°
2026-05-05 18:57 51.31215 6.81837 2340 ft 179 kts 50°
2026-05-05 18:57 51.32041 6.83433 2815 ft 196 kts 53°
2026-05-05 18:57 51.32907 6.85298 3232 ft 222 kts 54°
2026-05-05 18:58 51.33855 6.87415 3720 ft 246 kts 55°
2026-05-05 18:58 51.34843 6.89760 4460 ft 260 kts 60°
2026-05-05 18:58 51.35335 6.92562 4886 ft 267 kts 91°
2026-05-05 18:58 51.35079 6.95506 5000 ft 268 kts 100°
2026-05-05 18:59 51.34760 6.98436 5024 ft 268 kts 99°
2026-05-05 18:59 51.34442 7.01399 5700 ft 271 kts 99°
2026-05-05 18:59 51.34127 7.04389 6702 ft 274 kts 100°
2026-05-05 18:59 51.33536 7.07300 7591 ft 279 kts 120°
2026-05-05 19:00 51.32243 7.09617 8474 ft 283 kts 145°
2026-05-05 19:00 51.30522 7.11173 9401 ft 286 kts 153°
2026-05-05 19:00 51.28735 7.12664 10130 ft 298 kts 153°
2026-05-05 19:00 51.26822 7.14246 10429 ft 322 kts 153°
2026-05-05 19:01 51.24760 7.15952 10688 ft 346 kts 152°
2026-05-05 19:01 51.22555 7.17784 10874 ft 369 kts 152°
2026-05-05 19:01 51.20219 7.19725 11165 ft 385 kts 152°
2026-05-05 19:01 51.17825 7.21712 11791 ft 390 kts 152°
2026-05-05 19:02 51.15403 7.23720 12479 ft 394 kts 152°
2026-05-05 19:02 51.12953 7.25752 13179 ft 397 kts 152°
2026-05-05 19:02 51.10499 7.27785 13848 ft 401 kts 153°
2026-05-05 19:02 51.08018 7.29849 14442 ft 404 kts 152°
2026-05-05 19:03 51.05515 7.31934 15041 ft 408 kts 152°
2026-05-05 19:03 51.02996 7.34030 15636 ft 411 kts 152°
2026-05-05 19:03 51.00456 7.36143 16215 ft 413 kts 152°
2026-05-05 19:03 50.97900 7.38263 16767 ft 416 kts 152°
2026-05-05 19:04 50.95326 7.40394 17315 ft 419 kts 153°
2026-05-05 19:04 50.92734 7.42533 17852 ft 422 kts 153°
2026-05-05 19:04 50.90123 7.44678 17753 ft 423 kts 153°
2026-05-05 19:04 50.87517 7.46812 16822 ft 421 kts 153°
2026-05-05 19:05 50.84928 7.48933 15979 ft 418 kts 153°
2026-05-05 19:05 50.82355 7.51037 15230 ft 415 kts 153°
2026-05-05 19:05 50.79827 7.53101 14924 ft 401 kts 153°
2026-05-05 19:05 50.77403 7.55081 14804 ft 383 kts 153°
2026-05-05 19:06 50.75103 7.56959 14823 ft 362 kts 153°
2026-05-05 19:06 50.72916 7.58743 14826 ft 344 kts 153°
2026-05-05 19:06 50.70841 7.60435 14823 ft 328 kts 153°
2026-05-05 19:06 50.68864 7.62047 14822 ft 313 kts 153°
2026-05-05 19:07 50.66953 7.63597 14822 ft 307 kts 153°
2026-05-05 19:07 50.65061 7.65134 14822 ft 305 kts 153°
2026-05-05 19:07 50.63173 7.66667 14823 ft 305 kts 153°
2026-05-05 19:07 50.61282 7.68197 14824 ft 306 kts 154°
2026-05-05 19:08 50.59383 7.69728 14821 ft 307 kts 154°
2026-05-05 19:08 50.57504 7.71241 14821 ft 307 kts 154°
2026-05-05 19:08 50.55601 7.72778 14822 ft 307 kts 154°
2026-05-05 19:08 50.53700 7.74314 14814 ft 307 kts 154°
2026-05-05 19:09 50.51812 7.75841 14511 ft 304 kts 154°
2026-05-05 19:09 50.49928 7.77358 14164 ft 303 kts 154°
2026-05-05 19:09 50.48053 7.78863 13829 ft 302 kts 154°
2026-05-05 19:09 50.46188 7.80362 13483 ft 301 kts 154°
2026-05-05 19:10 50.44331 7.81863 13122 ft 299 kts 153°
2026-05-05 19:10 50.42590 7.83642 12746 ft 299 kts 143°
2026-05-05 19:10 50.40967 7.85666 12370 ft 297 kts 143°
2026-05-05 19:10 50.39351 7.87677 12003 ft 295 kts 143°
2026-05-05 19:11 50.37749 7.89665 11660 ft 293 kts 144°
2026-05-05 19:11 50.36149 7.91653 11183 ft 295 kts 143°
2026-05-05 19:11 50.34779 7.94158 10366 ft 315 kts 120°
2026-05-05 19:11 50.34074 7.97638 9949 ft 360 kts 104°
2026-05-05 19:12 50.33525 8.01621 9795 ft 376 kts 103°
2026-05-05 19:12 50.33006 8.05491 9825 ft 351 kts 103°
2026-05-05 19:12 50.32522 8.09121 9830 ft 331 kts 103°
2026-05-05 19:12 50.32061 8.12558 9830 ft 313 kts 104°
2026-05-05 19:13 50.31620 8.15818 9831 ft 301 kts 104°
2026-05-05 19:13 50.31185 8.19007 9832 ft 299 kts 104°
2026-05-05 19:13 50.30747 8.22202 9833 ft 302 kts 104°
2026-05-05 19:13 50.30302 8.25422 9833 ft 303 kts 104°
2026-05-05 19:14 50.29857 8.28652 9834 ft 304 kts 104°
2026-05-05 19:14 50.29410 8.31885 9828 ft 304 kts 104°
2026-05-05 19:14 50.28959 8.35123 9833 ft 305 kts 104°
2026-05-05 19:14 50.28509 8.38361 9835 ft 305 kts 104°
2026-05-05 19:15 50.28058 8.41603 9833 ft 305 kts 104°
2026-05-05 19:15 50.27608 8.44841 9820 ft 304 kts 104°
2026-05-05 19:15 50.27162 8.48054 9488 ft 301 kts 104°
2026-05-05 19:15 50.26718 8.51240 9060 ft 299 kts 104°
2026-05-05 19:16 50.26272 8.54409 8604 ft 298 kts 105°
2026-05-05 19:16 50.25825 8.57564 8173 ft 296 kts 105°
2026-05-05 19:16 50.25381 8.60698 7775 ft 294 kts 105°
2026-05-05 19:16 50.24941 8.63815 7371 ft 292 kts 104°
2026-05-05 19:17 50.24505 8.66908 6965 ft 291 kts 104°
2026-05-05 19:17 50.24071 8.69980 6806 ft 289 kts 104°
2026-05-05 19:17 50.23635 8.73052 6819 ft 290 kts 104°
2026-05-05 19:17 50.23203 8.76092 6819 ft 290 kts 104°
2026-05-05 19:18 50.22765 8.79170 6820 ft 291 kts 104°
2026-05-05 19:18 50.22439 8.82288 6820 ft 292 kts 98°
2026-05-05 19:18 50.22331 8.85454 6812 ft 292 kts 91°
2026-05-05 19:18 50.22429 8.88613 6451 ft 291 kts 85°
2026-05-05 19:19 50.22744 8.91727 6013 ft 290 kts 79°
2026-05-05 19:19 50.23270 8.94757 5586 ft 289 kts 72°
2026-05-05 19:19 50.23952 8.97695 5157 ft 287 kts 70°
2026-05-05 19:19 50.24441 9.00680 4758 ft 281 kts 90°
2026-05-05 19:20 50.24085 9.03598 4408 ft 272 kts 117°
2026-05-05 19:20 50.22931 9.05841 4058 ft 263 kts 148°
2026-05-05 19:20 50.21258 9.06853 4016 ft 260 kts 176°
2026-05-05 19:20 50.19479 9.06802 4009 ft 248 kts 196°
2026-05-05 19:21 50.18035 9.05638 4017 ft 227 kts 220°
2026-05-05 19:21 50.17229 9.04563 4016 ft 225 kts 223°
2026-05-05 19:21 50.16082 9.02917 4019 ft 224 kts 224°
2026-05-05 19:21 50.14944 9.01259 4017 ft 224 kts 224°
2026-05-05 19:22 50.13830 8.99568 4010 ft 223 kts 232°
2026-05-05 19:22 50.13134 8.97424 4019 ft 223 kts 250°
2026-05-05 19:22 50.12611 8.95145 4017 ft 223 kts 250°
2026-05-05 19:22 50.12093 8.92896 4018 ft 224 kts 250°
2026-05-05 19:23 50.11547 8.90562 4013 ft 229 kts 249°
2026-05-05 19:23 50.11008 8.88267 4015 ft 224 kts 249°
2026-05-05 19:23 50.10473 8.85991 3961 ft 224 kts 250°
2026-05-05 19:23 50.09946 8.83751 3726 ft 223 kts 250°
2026-05-05 19:24 50.09414 8.81494 3442 ft 221 kts 250°
2026-05-05 19:24 50.08888 8.79262 3154 ft 218 kts 250°
2026-05-05 19:24 50.08368 8.77061 2859 ft 216 kts 250°
2026-05-05 19:24 50.07854 8.74885 2555 ft 213 kts 250°
2026-05-05 19:25 50.07345 8.72732 2282 ft 211 kts 250°
2026-05-05 19:25 50.06827 8.70546 1995 ft 222 kts 249°
2026-05-05 19:25 50.06302 8.68327 1696 ft 208 kts 249°
2026-05-05 19:25 50.05826 8.66321 1444 ft 187 kts 249°
2026-05-05 19:26 50.05363 8.64371 1177 ft 195 kts 249°
2026-05-05 19:26 50.04918 8.62500 917 ft 173 kts 249°
2026-05-05 19:26 50.04498 8.60729 694 ft 180 kts 249°
2026-05-05 19:26 50.04093 8.59000 464 ft 160 kts 249°
2026-05-05 19:27 50.03731 8.57492 360 ft 135 kts 248°
2026-05-05 19:27 50.03489 8.56495 354 ft 55 kts 249°
2026-05-05 19:27 50.03453 8.56313 351 ft 1 kts 258°
2026-05-05 19:27 50.03440 8.56208 352 ft 15 kts 261°
2026-05-05 19:28 50.03441 8.56032 348 ft 19 kts 275°
2026-05-05 19:28 50.03450 8.55942 349 ft 0 kts 279°
2026-05-05 19:29 50.03456 8.55874 345 ft 10 kts 278°
2026-05-05 19:29 50.03467 8.55766 351 ft 9 kts 278°
2026-05-05 19:29 50.03475 8.55692 345 ft 4 kts 278°
2026-05-05 19:29 50.03478 8.55659 353 ft 1 kts 278°
2026-05-05 19:30 50.03483 8.55618 348 ft 9 kts 281°
2026-05-05 19:30 50.03508 8.55577 346 ft 4 kts
2026-05-05 19:30 50.03527 8.55616 350 ft 8 kts 71°
2026-05-05 19:30 50.03554 8.55734 351 ft 15 kts 69°
2026-05-05 19:31 50.03600 8.55922 353 ft 22 kts 69°
2026-05-05 19:31 50.03659 8.56165 357 ft 25 kts 70°
2026-05-05 19:31 50.03721 8.56429 358 ft 27 kts 70°
2026-05-05 19:31 50.03787 8.56713 358 ft 29 kts 70°
2026-05-05 19:32 50.03855 8.57013 361 ft 30 kts 70°
2026-05-05 19:32 50.03926 8.57310 365 ft 29 kts 70°
2026-05-05 19:32 50.03997 8.57603 369 ft 29 kts 69°
2026-05-05 19:32 50.04072 8.57906 370 ft 31 kts 69°
2026-05-05 19:33 50.04149 8.58220 371 ft 32 kts 69°
2026-05-05 19:33 50.04228 8.58546 372 ft 33 kts 70°
2026-05-05 19:33 50.04306 8.58879 374 ft 32 kts 70°
2026-05-05 19:33 50.04383 8.59202 376 ft 31 kts 69°
2026-05-05 19:34 50.04444 8.59429 376 ft 14 kts 53°
2026-05-05 19:34 50.04537 8.59470 374 ft 14 kts 359°
2026-05-05 19:34 50.04568 8.59468 373 ft 0 kts 358°
2026-05-05 19:35 50.04598 8.59467 373 ft 5 kts 357°
2026-05-05 19:35 50.04666 8.59454 372 ft 12 kts 349°
2026-05-05 19:35 50.04722 8.59430 372 ft 3 kts 342°
2026-05-05 19:35 50.04733 8.59425 372 ft 0 kts 342°
2026-05-05 19:36 50.04744 8.59419 372 ft 7 kts 342°
2026-05-05 19:36 50.04810 8.59382 371 ft 8 kts 339°
2026-05-05 19:37 50.04841 8.59306 369 ft 9 kts 289°
2026-05-05 19:37 50.04832 8.59208 372 ft 9 kts 252°
2026-05-05 19:37 50.04829 8.59151 368 ft 5 kts 296°
2026-05-05 19:37 50.04867 8.59129 368 ft 7 kts 341°
2026-05-05 19:38 50.04894 8.59114 371 ft 2 kts 340°
2026-05-05 19:38 50.04901 8.59110 371 ft 0 kts 340°
2026-05-05 19:38 50.04902 8.59109 371 ft 0 kts 340°